Theta_e
301 301 301 302 305 307 309 310 312 312 312 311 316 320 324 322 323 321 322 323 324 325 327 330 327 331 332 332 332 331 329 329 330 331 332 329 326 327 329 328 328 330 330 329
298 298 299 300 302 306 307 308 309 310 309 310 313 315 316 319 322 323 323 322 321 322 324 328 325 330 331 331 331 331 330 329 330 331 332 330 327 329 331 331 331 331 331 330
298 298 299 298 298 300 301 305 306 310 310 310 311 312 312 314 316 319 321 322 322 321 321 322 329 325 330 331 331 331 331 330 330 331 332 331 330 331 332 333 332 331 330 330
298 296 299 300 297 298 299 301 304 307 309 311 309 309 312 312 314 317 319 320 321 321 320 320 322 325 326 328 330 331 332 331 330 331 332 332 332 332 333 333 331 331 331 331
298 298 299 300 300 299 298 304 305 305 307 310 311 311 309 310 312 314 315 318 320 321 321 320 320 320 323 324 327 330 332 333 332 330 331 332 332 333 334 332 331 331 332 332
299 299 299 300 300 301 301 302 302 303 305 308 307 310 309 309 312 313 315 315 317 320 320 322 320 319 320 324 324 324 332 332 333 333 331 331 332 332 333 333 332 332 332 333
298 299 299 300 301 301 302 302 300 303 304 303 305 308 308 309 310 313 313 315 316 318 319 320 321 322 323 323 322 323 329 333 333 333 333 332 332 332 333 333 333 332 332 332
300 299 299 300 300 300 300 301 300 300 303 301 302 306 308 309 308 310 309 310 313 316 318 319 319 319 321 320 320 321 324 328 330 333 333 333 332 332 332 333 333 332 332 331
298 299 298 298 300 300 299 301 301 302 302 305 304 305 306 308 308 309 311 310 311 313 315 317 318 318 318 318 319 321 325 324 329 332 333 333 332 331 332 328 320 312 317 316
297 297 297 300 299 300 299 299 303 303 300 301 304 305 306 307 307 308 310 311 310 308 313 315 316 318 317 319 322 324 328 330 332 331 330 330 330 326 320 320 319 320 319 319
295 296 298 300 302 301 301 301 299 302 304 302 302 303 306 306 306 306 306 307 308 308 309 310 313 315 317 320 322 325 329 331 331 328 327 327 322 322 321 320 319 319 318 318
296 297 296 296 298 299 301 301 301 302 300 300 303 304 305 305 305 305 306 306 306 306 307 309 311 314 315 318 322 326 328 328 329 324 320 320 322 320 319 318 318 318 315 312
295 296 296 296 299 301 301 301 302 302 302 303 303 300 304 303 303 303 304 304 303 304 306 308 309 312 314 316 317 320 321 321 321 319 319 319 317 316 316 312 312 307 305 304
296 296 296 296 296 295 296 296 297 298 300 301 303 302 301 302 302 303 303 303 303 301 301 305 308 308 311 312 313 314 315 314 312 310 309 310 310 308 307 307 305 303 302 300
296 296 294 296 296 296 296 295 296 297 298 300 301 300 303 303 303 303 304 303 300 300 299 301 304 307 306 307 307 307 308 308 308 308 309 308 305 303 302 301 301 299 298 297
294 295 293 293 294 294 295 296 296 298 299 298 299 300 302 302 302 301 303 302 300 299 298 299 302 303 305 305 306 306 307 307 309 309 310 309 307 303 302 299 298 297 296 296
295 295 294 294 293 293 295 295 295 297 299 299 300 301 302 302 302 302 303 301 301 299 298 298 300 302 303 305 305 305 304 303 301 300 300 299 298 297 297 296 295 295 295 294
294 295 295 294 290 294 296 296 298 298 299 300 301 301 301 301 302 302 302 301 300 297 299 298 299 300 299 300 299 299 299 298 297 298 297 296 296 295 295 294 293 293 292 292
293 294 295 294 292 293 293 296 296 298 298 299 299 300 300 299 300 300 301 301 298 297 299 299 298 297 297 298 299 298 296 296 296 296 295 294 293 293 293 293 292 292 292 292
290 293 295 287 292 293 294 295 298 298 297 298 297 299 299 300 301 303 300 300 298 299 298 299 297 296 295 296 296 296 296 295 295 293 293 293 293 293 292 292 292 293 293 293
292 293 294 295 294 293 293 294 295 297 299 296 298 298 299 300 301 302 302 300 300 298 296 296 296 296 295 295 295 295 294 294 293 293 293 293 293 292 292 292 292 293 293 293
291 291 291 290 292 293 292 292 296 298 295 294 296 296 299 300 301 300 302 299 298 297 296 295 295 295 295 295 295 294 294 293 293 293 293 292 292 292 292 292 293 293 292 293
291 292 294 291 292 293 291 294 294 292 292 293 294 297 299 300 298 298 300 299 298 297 296 296 295 295 295 295 295 294 295 294 294 293 292 292 292 292 292 293 292 291 291 291
289 289 291 292 294 291 291 292 292 293 294 294 296 299 300 300 297 297 299 298 298 296 297 297 296 296 296 295 295 295 294 294 293 292 291 291 291 292 293 292 290 290 289 289
292 289 291 292 292 292 292 293 292 294 293 295 298 298 299 300 299 300 299 299 298 297 297 296 295 295 295 296 296 295 295 294 294 292 291 291 291 291 291 290 289 289 288 288
292 291 292 295 293 293 293 293 294 294 294 294 299 299 300 300 302 301 300 298 298 298 296 296 295 296 296 296 295 294 294 294 294 292 290 290 290 290 289 289 289 288 288 287
Wind_Speed
4 3 5 4 6 9 9 8 9 8 8 12 13 19 23 28 21 17 28 28 29 28 30 21 25 28 29 29 29 29 27 26 28 27 29 29 29 25 23 21 18 17 15 14
2 4 2 2 5 6 10 13 15 13 14 12 16 21 19 24 27 31 27 24 28 28 26 23 25 27 31 31 32 32 31 29 30 29 28 28 27 25 22 20 19 18 17 16
5 4 5 7 5 7 11 14 10 7 12 17 17 28 28 26 29 31 33 34 31 27 28 27 25 29 32 33 33 33 33 33 33 31 28 28 25 23 23 22 19 17 16 12
4 3 3 4 5 7 9 6 13 12 6 7 9 12 15 21 29 28 33 33 35 32 28 26 26 31 33 34 35 33 32 34 34 33 32 31 29 27 23 20 17 17 15 15
2 3 6 8 5 4 4 6 3 8 12 9 16 9 15 19 19 21 31 36 34 36 34 30 35 35 32 27 29 33 35 35 36 37 36 33 30 25 20 19 19 18 16 16
11 8 6 11 6 5 1 4 6 7 8 12 20 15 13 17 14 13 19 30 37 37 36 33 29 34 35 34 35 36 38 38 36 36 37 36 33 30 25 23 21 19 17 16
8 5 3 10 7 6 5 4 3 6 7 10 10 15 20 10 9 6 5 11 21 29 35 35 33 41 39 37 36 38 38 38 37 35 36 36 34 31 27 24 22 20 22 22
6 2 4 6 9 4 12 12 5 7 7 9 16 11 6 2 15 15 17 20 14 16 26 30 32 37 38 36 35 33 35 38 36 35 36 38 36 34 27 24 24 24 22 20
4 5 6 9 6 6 5 11 18 11 15 6 7 19 17 9 10 9 9 10 17 11 14 21 29 32 34 32 28 26 28 31 32 34 34 35 30 23 22 15 12 8 3 4
1 8 6 3 5 11 13 3 5 7 6 9 9 16 11 3 13 17 10 12 9 8 10 17 21 25 32 31 28 24 21 24 29 31 27 26 29 26 21 1 6 5 16 17
3 4 4 3 6 8 6 5 7 5 5 8 8 8 2 2 5 10 10 8 7 7 8 9 16 20 27 28 25 24 23 26 27 28 32 33 28 16 9 6 9 9 14 14
5 3 6 12 13 5 5 15 14 8 10 10 12 18 3 4 5 9 15 11 8 8 8 10 12 16 19 23 26 27 29 31 32 35 29 22 12 8 13 7 10 14 16 14
3 3 6 7 2 2 5 6 12 16 15 17 15 16 8 7 15 15 9 9 8 8 11 14 15 18 19 21 24 28 29 30 33 27 20 17 18 17 12 14 12 14 12 11
4 7 9 11 8 4 12 15 17 12 9 14 17 26 24 25 23 25 19 9 10 8 11 16 20 20 21 23 24 26 28 26 23 22 23 21 19 18 18 14 15 14 12 8
4 6 8 16 19 18 20 22 22 16 22 15 24 21 24 21 15 21 20 12 11 13 15 16 22 26 26 26 28 29 30 30 28 23 20 18 17 17 17 13 11 8 8 6
5 9 3 12 19 21 23 24 21 22 24 19 26 26 30 25 29 24 18 14 16 16 16 18 22 27 31 29 29 27 27 25 24 21 20 18 17 17 13 12 10 9 6 5
6 4 3 11 8 15 12 16 20 19 20 20 17 27 14 15 13 12 13 17 17 18 21 21 24 27 28 29 28 28 25 23 23 21 20 19 17 16 14 11 9 6 5 5
13 8 4 8 5 7 7 7 6 11 16 17 20 22 19 17 11 8 13 18 20 21 25 25 26 27 30 31 29 27 25 24 22 20 19 16 15 14 11 8 5 4 4 3
14 8 5 4 4 15 15 6 4 7 13 14 20 14 18 24 20 21 21 18 19 24 26 27 28 31 31 29 27 27 25 22 20 18 17 16 13 9 7 5 4 4 2 4
6 11 8 3 5 6 4 1 4 3 10 6 7 13 15 15 10 10 22 22 22 25 29 31 30 27 26 26 25 23 23 20 18 17 15 12 9 7 6 5 3 2 4 6
3 4 14 11 9 10 15 14 0 3 2 9 22 24 20 14 11 6 21 25 24 28 28 28 26 24 24 24 23 21 19 17 15 13 10 8 7 6 5 3 0 3 4 4
8 6 5 4 6 11 13 4 7 2 0 14 22 18 14 20 14 15 25 28 29 30 29 26 25 24 23 20 19 18 16 14 13 10 9 7 7 6 3 1 1 0 1 1
5 7 3 10 7 14 9 16 14 10 23 15 18 10 12 15 14 24 34 33 32 31 30 26 24 23 22 20 17 15 14 13 12 11 10 9 7 4 4 5 5 4 2 2
6 11 5 2 6 19 32 36 32 29 16 12 11 6 14 14 22 30 33 34 32 31 28 27 26 25 23 21 19 16 13 12 12 11 10 8 8 9 9 9 7 4 4 4
11 8 7 12 20 23 37 35 33 28 15 16 4 3 13 13 24 30 31 30 30 29 30 29 27 24 19 15 12 9 9 10 10 12 14 14 13 12 10 8 7 7 7 8
15 10 11 8 14 5 5 6 11 10 17 11 6 2 10 16 26 27 29 30 30 29 27 25 21 17 14 12 11 11 12 13 14 16 16 14 13 12 10 10 11 11 12 13
Wind_Direction
6 228 230 253 261 291 283 257 253 265 277 322 268 257 248 247 238 236 240 238 236 229 237 231 234 225 220 218 220 224 224 220 217 216 225 222 227 228 227 227 226 230 233 234
291 281 70 310 267 274 262 260 256 269 276 277 273 269 264 259 251 244 240 237 236 237 234 230 229 224 223 223 220 222 224 219 219 218 222 227 227 230 233 230 227 227 231 238
313 9 280 318 281 250 247 255 256 286 304 271 275 277 261 257 250 247 244 243 240 238 234 228 224 228 223 222 225 224 224 221 219 219 221 224 227 227 227 230 227 232 233 229
295 326 311 315 286 244 264 251 247 264 285 264 197 275 250 231 239 238 239 237 237 235 236 230 226 227 225 226 225 225 227 226 224 218 220 224 224 225 225 226 234 237 242 242
350 272 274 273 256 205 273 324 266 252 257 293 248 260 260 242 253 242 234 236 236 235 233 230 230 229 221 228 233 230 227 227 227 224 222 223 225 227 225 224 228 233 242 243
263 281 268 247 261 223 269 279 242 255 259 250 236 229 265 235 248 258 236 239 236 233 233 231 226 230 237 246 243 240 229 228 228 227 225 224 227 227 226 226 223 236 239 240
304 234 248 226 245 198 204 201 222 209 205 244 200 213 249 282 293 258 282 270 252 238 236 236 231 237 244 246 241 235 232 228 228 225 224 226 227 231 231 226 228 234 241 240
327 311 194 175 234 276 211 208 216 234 212 258 207 231 234 324 245 257 285 269 269 249 239 238 232 235 237 235 233 235 234 231 227 224 219 219 221 225 223 223 229 241 236 238
315 265 304 232 225 225 183 215 241 289 281 264 231 245 264 262 278 265 272 276 256 266 244 238 235 233 223 218 221 224 226 227 223 220 219 217 216 215 200 174 136 81 318 295
312 289 273 305 200 235 241 357 207 207 244 246 228 244 245 228 237 249 246 262 260 274 264 244 228 221 213 214 214 213 214 220 220 210 206 191 176 168 148 122 288 290 274 284
214 233 272 299 222 255 188 218 221 287 254 265 261 241 144 4 4 321 310 317 306 277 258 242 225 208 209 212 212 208 202 201 203 181 175 170 161 174 187 162 206 230 243 249
199 291 277 265 269 283 279 254 235 236 242 239 265 265 277 187 359 334 317 320 287 256 240 217 205 198 193 193 197 192 189 189 184 170 167 170 182 188 176 152 178 211 225 219
183 253 300 290 173 162 248 273 265 261 261 253 254 259 253 298 296 304 313 306 287 248 216 197 187 182 181 180 179 181 180 177 168 171 186 188 167 171 172 186 166 177 184 189
227 233 229 257 292 316 288 283 276 278 285 279 259 265 266 272 278 288 283 263 250 228 218 190 178 174 175 171 170 168 166 164 165 166 158 158 157 165 163 162 167 171 174 191
223 251 241 256 269 273 267 266 269 252 252 256 270 272 273 271 289 283 284 239 225 215 206 190 177 167 166 164 160 158 156 153 151 151 152 155 154 156 150 156 158 170 173 189
196 261 255 282 275 264 266 265 263 259 258 249 251 267 261 278 275 267 255 230 213 202 199 188 176 167 163 160 157 155 154 155 159 161 164 168 167 164 165 170 167 173 192 213
237 254 268 283 317 314 276 251 246 250 241 231 234 239 275 270 282 269 246 229 223 203 187 187 176 168 163 160 159 158 156 155 155 154 146 150 157 158 156 172 173 188 216 239
247 243 244 287 318 251 261 299 248 257 261 235 246 254 262 266 273 257 249 225 209 196 179 178 170 162 159 154 151 152 153 151 151 152 153 153 158 160 164 168 174 205 234 273
222 239 243 253 251 290 286 270 183 208 274 247 253 277 290 275 268 263 253 231 201 190 177 169 164 162 160 159 156 158 152 152 152 153 155 162 154 152 160 173 197 218 273 323
224 225 228 149 257 262 257 190 136 87 280 143 317 293 279 260 227 233 200 197 186 179 167 165 165 166 160 154 154 155 153 153 154 159 158 154 155 164 176 194 208 293 334 346
189 213 229 231 248 267 260 244 150 250 303 315 314 287 256 222 222 286 181 181 178 169 164 160 157 159 158 156 156 157 157 155 160 164 162 164 171 180 193 204 284 15 17 0
192 182 203 200 226 260 222 122 206 217 264 318 315 306 257 197 220 171 169 170 166 164 165 162 159 160 160 160 162 162 162 167 175 179 184 188 196 198 197 138 76 66 302 317
237 211 216 208 220 253 244 257 236 303 307 309 307 321 170 181 171 166 166 167 166 167 165 163 164 164 166 169 170 175 182 189 196 199 202 207 211 203 200 209 209 214 236 302
236 222 244 314 246 248 262 266 272 284 305 317 323 263 198 196 174 166 163 166 167 169 168 164 170 178 180 182 186 188 197 207 213 217 219 217 215 220 216 215 220 234 270 293
242 166 229 259 265 268 275 271 266 268 273 317 327 197 200 182 167 165 167 166 167 171 177 181 183 185 186 190 196 210 228 239 241 235 232 229 224 217 219 231 245 263 283 299
205 216 209 226 226 235 260 308 341 243 237 256 225 122 179 183 170 169 170 171 176 183 184 187 188 190 196 209 221 231 242 246 245 242 237 232 230 231 236 250 262 275 285 292